Location: Newark
(16.3678°N, 77.8722°E)
Time: 06:30:55
(UTC+00:00)

S-56A Canister/Altair - Pass Details

Date: 10 December 2019
Orbit: 634 x 2498 km, 38.9° (Epoch: 27 January)

Event Time Altitude Azimuth Distance (km) Brightness Sun altitude
Rises 10:18:22 0° 310° (NW) 6,063 12.3 24.0°
Reaches altitude 10° 10:22:59 10° 316° (NW) 4,901 11.8 23.0°
Maximum altitude 10:35:25 43° 24° (NNE) 2,439 9.9 20.6°
Drops below altitude 10° 10:44:13 10° 93° (E) 3,516 10.5 18.8°
Sets 10:46:56 0° 100° (E) 4,253 10.9 18.2°
